EDT,Max TemperatureF,Mean TemperatureF,Min TemperatureF,Max Dew PointF,MeanDew PointF,Min DewpointF,Max Humidity, Mean Humidity, Min Humidity, Max Sea Level PressureIn, Mean Sea Level PressureIn, Min Sea Level PressureIn, Max VisibilityMiles, Mean VisibilityMiles, Min VisibilityMiles, Max Wind SpeedMPH, Mean Wind SpeedMPH, Max Gust SpeedMPH,PrecipitationIn, CloudCover, Events, WindDirDegrees
2013-7-1,80,77,74,74,73,72,94,90,85,29.98,29.93,29.86,10,8,2,24,11,30,1.62,6,Rain,156
2013-7-2,90,82,74,74,72,70,94,84,56,30.08,30.01,29.97,10,8,1,22,10,26,0.93,4,Rain,150
2013-7-3,90,82,74,75,73,72,94,88,59,30.12,30.07,30.03,10,7,0,30,9,37,3.02,4,Fog-Rain-Thunderstorm,118
2013-7-4,90,82,73,76,73,68,100,85,56,30.13,30.09,30.05,10,9,2,20,9,26,0.16,4,Rain,99
2013-7-5,89,82,74,76,73,69,94,85,63,30.12,30.09,30.05,10,9,2,30,9,37,0.17,4,Rain,114
2013-7-6,92,83,74,75,73,71,94,77,52,30.10,30.06,30.02,10,10,10,17,7,23,0.00,2,,108
2013-7-7,93,85,76,75,72,69,94,72,49,30.12,30.06,30.01,10,10,10,22,9,25,T,1,,100
2013-7-8,93,85,76,75,72,69,94,73,52,30.15,30.11,30.07,10,9,1,21,7,30,0.26,3,Rain,93
2013-7-9,93,84,74,74,71,66,88,68,41,30.16,30.10,30.05,10,10,10,18,6,22,0.00,1,Tornado,76
2013-7-10,89,82,74,74,72,68,88,79,53,30.08,30.03,29.97,10,9,1,28,5,36,0.94,4,Rain-Thunderstorm,49
2013-7-11,87,81,75,75,73,71,94,78,59,30.02,29.98,29.94,10,10,10,14,6,17,T,3,,213
2013-7-12,87,81,75,75,73,70,94,76,65,29.96,29.93,29.90,10,10,7,15,5,18,0.13,4,Rain,235
2013-7-13,86,80,74,75,73,72,94,83,70,29.98,29.94,29.91,10,9,2,14,6,18,0.50,3,Rain,122
2013-7-14,87,81,74,76,73,70,94,83,61,30.07,30.01,29.95,10,10,10,16,8,20,0.02,2,,130
2013-7-15,91,83,74,75,72,70,94,82,55,30.10,30.05,30.00,10,8,1,24,6,29,0.95,5,Rain,109
2013-7-16,89,82,74,74,72,69,94,83,55,30.13,30.10,30.06,10,10,10,35,10,45,0.02,2,Rain,80
2013-7-17,90,82,73,74,72,71,94,83,56,30.14,30.10,30.06,10,10,8,31,9,40,0.10,2,Rain,77
2013-7-18,85,79,72,75,72,69,100,86,65,30.11,30.07,30.04,10,8,1,24,8,28,0.97,3,Rain,112
2013-7-19,88,81,73,76,73,70,100,83,63,30.12,30.08,30.04,10,10,10,24,8,30,0.03,3,,131
2013-7-20,88,81,73,78,73,70,94,82,68,30.10,30.06,30.01,10,10,10,23,6,29,0.03,3,Rain,120
2013-7-21,89,82,74,78,75,73,100,79,64,30.12,30.08,30.05,10,10,6,15,6,17,0.00,0,,202
2013-7-22,89,83,77,77,76,75,94,76,64,30.14,30.10,30.06,10,10,10,13,8,21,0.00,2,,229
2013-7-23,89,85,81,76,74,72,79,71,61,30.10,30.05,29.99,10,10,10,14,8,17,0.00,1,,260
2013-7-24,89,86,82,75,73,72,79,69,63,30.01,29.96,29.92,10,10,10,18,12,23,0.00,2,,267
2013-7-25,89,86,83,76,75,73,79,73,63,30.01,29.96,29.90,10,10,10,21,13,28,T,4,,267
2013-7-26,91,85,78,77,76,73,91,76,64,30.02,29.99,29.95,10,10,3,21,8,28,0.18,4,Rain,298
2013-7-27,92,85,78,77,74,72,91,72,52,30.00,29.97,29.93,10,10,10,17,7,20,0.00,2,,318
2013-7-28,90,83,76,75,74,72,94,75,59,30.05,30.00,29.94,10,10,10,13,4,16,T,2,,218
2013-7-29,92,84,75,75,72,69,88,75,56,30.14,30.08,30.02,10,9,2,37,5,47,0.19,2,Rain,101
2013-7-30,94,85,75,76,74,71,94,77,49,30.17,30.12,30.06,10,10,2,26,4,31,0.19,2,Rain-Thunderstorm,120
2013-7-31,92,85,77,77,74,70,94,77,59,30.12,30.06,30.00,10,10,10,17,6,22,T,1,,69